DW4554 Weather Reports


Display with metric or nautical units.
time (UTC)temp
F
wind
direction
speed
MPH
gust
MPH
rain 1hr
in
rain 24hr
in
rain mn
in
humidity
%
barometer
mb
20190121140518 35 303 0.0 0.0 0.00 0.00 0.00 64 1020.4
20190121135514 35 303 0.0 0.0 0.00 0.00 0.00 64 1020.6
20190121133508 34 303 0.0 0.0 0.00 0.00 0.00 66 1020.7
20190121132506 34 303 0.0 1.0 0.00 0.00 0.00 67 1020.7
20190121130457 33 303 0.0 0.0 0.00 0.00 0.00 68 1020.9
20190121125453 33 303 0.0 0.0 0.00 0.00 0.00 68 1021.1
20190121123444 33 303 0.0 0.0 0.00 0.00 0.00 69 1021.2
20190121122443 32 303 0.0 1.0 0.00 0.00 0.00 70 1021.4
20190121120432 32 303 0.0 0.0 0.00 0.00 0.00 71 1021.4
20190121115430 32 303 0.0 0.0 0.00 0.00 0.00 71 1021.5
20190121113421 31 303 0.0 0.0 0.00 0.00 0.00 72 1021.6
20190121112516 31 303 0.0 0.0 0.00 0.00 0.00 73 1021.7
20190121110514 30 303 0.0 0.0 0.00 0.00 0.00 76 1021.9
20190121105506 30 303 0.0 0.0 0.00 0.00 0.00 77 1022.0
20190121103503 28 40 0.0 1.0 0.00 0.00 0.00 82 1022.2
20190121102501 27 40 0.0 1.0 0.00 0.00 0.00 84 1022.3
20190121100501 25 40 0.0 0.0 0.00 0.00 0.00 87 1022.4
20190121095451 24 40 0.0 1.0 0.00 0.00 0.00 89 1022.5
20190121093445 23 117 0.0 0.0 0.00 0.00 0.00 91 1022.7
20190121092447 22 54 0.0 2.0 0.00 0.00 0.00 91 1022.6
20190121090438 21 53 0.0 3.0 0.00 0.00 0.00 92 1022.5
20190121085429 20 55 0.0 1.0 0.00 0.00 0.00 92 1022.5
20190121083419 19 55 0.0 0.0 0.00 0.00 0.00 92 1022.5
20190121082452 19 55 0.0 1.0 0.00 0.00 0.00 92 1022.5
20190121080528 17 55 0.0 1.0 0.00 0.00 0.00 92 1022.4
20190121075524 17 69 0.0 1.0 0.00 0.00 0.00 91 1022.4
20190121073522 17 69 0.0 1.0 0.00 0.00 0.00 91 1022.2
20190121072514 16 69 0.0 1.0 0.00 0.00 0.00 91 1022.1
20190121070513 16 68 0.0 0.0 0.00 0.00 0.00 91 1022.0
20190121065505 16 70 0.0 0.0 0.00 0.00 0.00 90 1021.9
20190121063501 16 70 0.0 0.0 0.00 0.00 0.00 90 1021.7
20190121062500 17 70 0.0 0.0 0.00 0.00 0.00 90 1021.7
20190121060453 17 70 0.0 0.0 0.00 0.00 0.00 90 1021.5
20190121055451 17 70 0.0 0.0 0.00 0.00 0.00 90 1021.5
20190121053447 17 70 0.0 0.0 0.00 0.00 0.00 90 1021.3
20190121052443 17 70 0.0 0.0 0.00 0.00 0.00 90 1021.4
20190121050439 18 70 0.0 0.0 0.00 0.00 0.00 90 1021.2
20190121045432 18 70 0.0 1.0 0.00 0.00 0.00 90 1021.2
20190121043420 19 70 0.0 0.0 0.00 0.00 0.00 90 1021.2
20190121042447 19 70 0.0 1.0 0.00 0.00 0.00 90 1021.1
20190121040527 19 80 0.0 1.0 0.00 0.00 0.00 90 1021.1
20190121035526 19 80 0.0 1.0 0.00 0.00 0.00 90 1021.1
20190121033519 19 80 0.0 0.0 0.00 0.00 0.00 89 1021.0
20190121032512 20 80 0.0 1.0 0.00 0.00 0.00 90 1021.0
20190121030504 20 47 0.0 1.0 0.00 0.00 0.00 90 1021.0
20190121025454 20 47 0.0 2.0 0.00 0.00 0.00 90 1021.0
20190121023449 20 47 0.0 0.0 0.00 0.00 0.00 90 1020.9
20190121022447 20 47 0.0 3.0 0.00 0.00 0.00 90 1020.8
20190121020430 20 183 1.0 6.0 0.00 0.00 0.00 91 1020.9
20190121015433 19 42 0.0 6.0 0.00 0.00 0.00 90 1020.7
20190121013438 19 75 0.0 6.0 0.00 0.00 0.00 89 1020.7
20190121012520 19 68 0.0 2.0 0.00 0.00 0.00 88 1020.7
20190121010517 19 54 0.0 0.0 0.00 0.00 0.00 88 1020.6
20190121005513 19 54 0.0 1.0 0.00 0.00 0.00 88 1020.5
20190121003507 20 55 0.0 0.0 0.00 0.00 0.00 87 1020.3
20190121002505 20 55 0.0 0.0 0.00 0.00 0.00 87 1020.2
20190121000459 21 54 0.0 0.0 0.00 0.00 0.00 86 1020.2
20190120235456 21 54 0.0 0.0 0.00 0.00 0.00 86 1020.2
20190120233450 21 54 0.0 0.0 0.00 0.00 0.00 85 1020.1
20190120232442 22 54 0.0 0.0 0.00 0.00 0.00 85 1020.2
20190120230438 22 55 0.0 1.0 0.00 0.00 0.00 85 1020.1
20190120225429 22 55 0.0 2.0 0.00 0.00 0.00 85 1020.1
20190120223525 22 57 0.0 0.0 0.00 0.00 0.00 83 1020.1
20190120222525 23 57 0.0 0.0 0.00 0.00 0.00 83 1020.1
20190120220518 23 57 0.0 0.0 0.00 0.00 0.00 82 1020.0
20190120215515 23 57 0.0 1.0 0.00 0.00 0.00 82 1020.0
20190120213505 24 57 0.0 0.0 0.00 0.00 0.00 80 1019.7
20190120212500 24 57 0.0 1.0 0.00 0.00 0.00 80 1019.6
20190120210449 25 67 0.0 2.0 0.00 0.00 0.00 79 1019.4
20190120205444 25 30 0.0 1.0 0.00 0.00 0.00 77 1019.4
20190120203436 26 35 0.0 1.0 0.00 0.00 0.00 76 1019.2
20190120202436 26 28 0.0 1.0 0.00 0.00 0.00 76 1019.0
20190120200418 27 45 0.0 2.0 0.00 0.00 0.00 76 1018.9
20190120195417 27 22 0.0 8.0 0.00 0.00 0.00 76 1018.7
20190120193422 27 27 1.0 7.0 0.00 0.00 0.00 74 1018.5
20190120192456 27 17 3.0 6.0 0.00 0.00 0.00 72 1018.4
20190120190522 28 52 0.0 1.0 0.00 0.00 0.00 70 1018.3
20190120185521 28 52 0.0 1.0 0.00 0.00 0.00 68 1018.2
20190120183511 29 31 0.0 1.0 0.00 0.00 0.00 67 1018.0
20190120182509 29 25 0.0 8.0 0.00 0.00 0.00 66 1017.9
20190120180505 30 34 0.0 1.0 0.00 0.00 0.00 66 1017.7
20190120175454 30 34 0.0 2.0 0.00 0.00 0.00 65 1017.6
20190120173440 30 26 2.0 7.0 0.00 0.00 0.00 66 1017.3
20190120172415 30 48 0.0 1.0 0.00 0.00 0.00 67 1017.3
20190120170417 31 349 0.0 1.0 0.00 0.00 0.00 66 1017.1
20190120165419 31 31 0.0 1.0 0.00 0.00 0.00 66 1017.0
20190120163422 31 15 0.0 0.0 0.00 0.00 0.00 69 1016.9
20190120162503 31 15 0.0 0.0 0.00 0.00 0.00 69 1016.8
20190120160529 32 15 0.0 0.0 0.00 0.00 0.00 69 1016.6
20190120155527 32 15 0.0 0.0 0.00 0.00 0.00 69 1016.5
20190120153522 33 15 0.0 1.0 0.00 0.00 0.00 69 1016.4
20190120152519 33 24 0.0 1.0 0.00 0.00 0.00 70 1016.3
20190120150509 34 12 0.0 1.0 0.00 0.00 0.00 74 1016.2
20190120145507 34 256 0.0 0.0 0.00 0.00 0.00 75 1016.2
20190120143500 35 256 0.0 0.0 0.00 0.00 0.00 75 1016.2
20190120142459 35 256 0.0 0.0 0.00 0.00 0.00 76 1016.1